Tracking 31027 objects as of 19-Jul-2025
HD Live streaming from Space Station
objects crossing your sky now

STARLINK-5407

Track STARLINK-5407 now!
10-day predictions
STARLINK-5407 is classified as:


NORAD ID: 54858
Int'l Code: 2022-177AQ
Perigee: 565.2 km
Apogee: 567.2 km
Inclination: 43.0 °
Period: 95.8 minutes
Semi major axis: 6937 km
RCS: Unknown
Launch date: December 28, 2022
Source: United States (US)
Launch site: AIR FORCE EASTERN TEST RANGE (AFETR)
Your satellite tracking list
STARLINK-1578
Track 1 satellite(s)




NASA's NSSDC Master Catalog

Two Line Element Set (TLE):
1 54858U 22177AQ  25199.81414310  .00000029  00000-0  17238-4 0  9993
2 54858  43.0033 311.1985 0001470 275.4796  84.5879 15.02534687141924
Source of the keplerian elements: AFSPC